TimeCDT,TemperatureF,Dew PointF,Humidity,Sea Level PressureIn,VisibilityMPH,Wind Direction,Wind SpeedMPH,Gust SpeedMPH,PrecipitationIn,Events,Conditions,WindDirDegrees,DateUTC
12:14 AM,62.6,48.2,59,29.91,10.0,Calm,Calm,-,N/A,,Clear,0,2013-06-16 05:14:00
12:34 AM,62.6,48.2,59,29.91,10.0,WSW,3.5,-,N/A,,Clear,240,2013-06-16 05:34:00
12:53 AM,62.6,50.0,63,29.92,10.0,WSW,4.6,-,N/A,,Clear,240,2013-06-16 05:53:00
1:14 AM,60.8,50.0,68,29.91,10.0,Calm,Calm,-,N/A,,Clear,0,2013-06-16 06:14:00
1:34 AM,60.8,50.0,68,29.91,10.0,Calm,Calm,-,N/A,,Clear,0,2013-06-16 06:34:00
1:53 AM,60.8,48.2,63,29.91,10.0,West,3.5,-,N/A,,Clear,260,2013-06-16 06:53:00
2:14 AM,59.0,48.2,67,29.91,10.0,Calm,Calm,-,N/A,,Clear,0,2013-06-16 07:14:00
2:34 AM,59.0,50.0,72,29.91,10.0,Calm,Calm,-,N/A,,Clear,0,2013-06-16 07:34:00
2:54 AM,57.2,50.0,77,29.91,10.0,West,4.6,-,N/A,,Clear,270,2013-06-16 07:54:00
3:13 AM,57.2,50.0,77,29.92,10.0,West,4.6,-,N/A,,Clear,270,2013-06-16 08:13:00
3:34 AM,57.2,50.0,77,29.92,10.0,West,5.8,-,N/A,,Clear,260,2013-06-16 08:34:00
3:54 AM,57.2,48.2,72,29.92,10.0,West,4.6,-,N/A,,Clear,270,2013-06-16 08:54:00
4:13 AM,57.2,48.2,72,29.92,10.0,West,5.8,-,N/A,,Clear,260,2013-06-16 09:13:00
4:34 AM,57.2,48.2,72,29.94,10.0,WSW,5.8,-,N/A,,Clear,240,2013-06-16 09:34:00
4:54 AM,57.2,48.2,72,29.93,10.0,West,3.5,-,N/A,,Clear,270,2013-06-16 09:54:00
5:13 AM,57.2,46.4,67,29.92,10.0,WNW,4.6,-,N/A,,Clear,290,2013-06-16 10:13:00
5:34 AM,57.2,48.2,72,29.92,10.0,West,3.5,-,N/A,,Clear,270,2013-06-16 10:34:00
5:54 AM,57.2,48.2,72,29.93,10.0,NW,4.6,-,N/A,,Clear,310,2013-06-16 10:54:00
6:13 AM,57.2,48.2,72,29.93,10.0,WNW,4.6,-,N/A,,Clear,290,2013-06-16 11:13:00
6:34 AM,59.0,50.0,72,29.94,10.0,WSW,3.5,-,N/A,,Clear,240,2013-06-16 11:34:00
6:54 AM,60.8,50.0,68,29.94,10.0,West,3.5,-,N/A,,Clear,270,2013-06-16 11:54:00
7:14 AM,62.6,50.0,63,29.95,10.0,Calm,Calm,-,N/A,,Clear,0,2013-06-16 12:14:00
7:34 AM,62.6,50.0,63,29.95,10.0,West,5.8,-,N/A,,Clear,280,2013-06-16 12:34:00
7:54 AM,68.0,51.8,56,29.95,10.0,WNW,4.6,-,N/A,,Clear,290,2013-06-16 12:54:00
8:14 AM,69.8,51.8,53,29.95,10.0,NW,5.8,-,N/A,,Clear,310,2013-06-16 13:14:00
8:33 AM,69.8,51.8,53,29.95,10.0,WNW,6.9,-,N/A,,Clear,290,2013-06-16 13:33:00
8:54 AM,69.8,50.0,49,29.95,10.0,West,5.8,-,N/A,,Clear,280,2013-06-16 13:54:00
9:12 AM,73.4,51.8,47,29.96,10.0,West,8.1,-,N/A,,Clear,270,2013-06-16 14:12:00
9:32 AM,73.4,48.2,41,29.95,10.0,West,10.4,-,N/A,,Clear,270,2013-06-16 14:32:00
9:53 AM,77.0,50.0,39,29.95,10.0,West,10.4,-,N/A,,Clear,270,2013-06-16 14:53:00
10:14 AM,77.0,48.2,36,29.95,10.0,West,10.4,-,N/A,,Clear,280,2013-06-16 15:14:00
10:33 AM,78.8,46.4,32,29.94,10.0,West,10.4,-,N/A,,Clear,260,2013-06-16 15:33:00
10:54 AM,78.8,46.4,32,29.94,10.0,West,9.2,-,N/A,,Clear,280,2013-06-16 15:54:00
11:14 AM,80.6,42.8,26,29.93,10.0,West,16.1,20.7,N/A,,Clear,280,2013-06-16 16:14:00
11:34 AM,80.6,42.8,26,29.93,10.0,WNW,12.7,18.4,N/A,,Clear,300,2013-06-16 16:34:00
11:53 AM,80.6,42.8,26,29.92,10.0,WNW,10.4,24.2,N/A,,Clear,290,2013-06-16 16:53:00
12:14 PM,82.4,42.8,25,29.92,10.0,West,17.3,23.0,N/A,,Clear,270,2013-06-16 17:14:00
12:34 PM,82.4,42.8,25,29.92,10.0,WNW,18.4,24.2,N/A,,Clear,290,2013-06-16 17:34:00
12:54 PM,82.4,42.8,25,29.92,10.0,WNW,16.1,24.2,N/A,,Clear,300,2013-06-16 17:54:00
1:14 PM,82.4,42.8,25,29.92,10.0,NW,11.5,23.0,N/A,,Clear,310,2013-06-16 18:14:00
1:34 PM,82.4,42.8,25,29.92,10.0,WNW,10.4,18.4,N/A,,Scattered Clouds,290,2013-06-16 18:34:00
1:54 PM,86.0,44.6,23,29.92,10.0,West,19.6,29.9,N/A,,Scattered Clouds,280,2013-06-16 18:54:00
2:14 PM,86.0,44.6,23,29.92,10.0,West,16.1,21.9,N/A,,Clear,280,2013-06-16 19:14:00
2:34 PM,86.0,44.6,23,29.92,10.0,WNW,13.8,21.9,N/A,,Scattered Clouds,290,2013-06-16 19:34:00
2:54 PM,86.0,46.4,25,29.92,10.0,West,17.3,27.6,N/A,,Clear,280,2013-06-16 19:54:00
3:14 PM,86.0,46.4,25,29.91,10.0,WNW,13.8,23.0,N/A,,Scattered Clouds,300,2013-06-16 20:14:00
3:34 PM,86.0,46.4,25,29.90,10.0,West,19.6,23.0,N/A,,Clear,280,2013-06-16 20:34:00
3:53 PM,87.8,46.4,24,29.89,10.0,WNW,21.9,26.5,N/A,,Scattered Clouds,290,2013-06-16 20:53:00
4:14 PM,87.8,44.6,22,29.89,10.0,West,19.6,28.8,N/A,,Scattered Clouds,270,2013-06-16 21:14:00
4:33 PM,86.0,44.6,23,29.89,10.0,West,18.4,26.5,N/A,,Scattered Clouds,280,2013-06-16 21:33:00
4:54 PM,87.8,44.6,22,29.89,10.0,West,21.9,26.5,N/A,,Scattered Clouds,280,2013-06-16 21:54:00
5:14 PM,86.0,46.4,25,29.89,10.0,WSW,18.4,26.5,N/A,,Scattered Clouds,250,2013-06-16 22:14:00
5:33 PM,82.4,44.6,26,29.89,10.0,West,16.1,23.0,N/A,,Clear,280,2013-06-16 22:33:00
5:54 PM,78.8,51.8,39,29.89,10.0,NW,13.8,27.6,N/A,,Scattered Clouds,320,2013-06-16 22:54:00
6:13 PM,77.0,53.6,44,29.89,10.0,NW,10.4,17.3,N/A,,Scattered Clouds,310,2013-06-16 23:13:00
6:34 PM,78.8,51.8,39,29.88,10.0,NW,9.2,-,N/A,,Clear,310,2013-06-16 23:34:00
6:54 PM,78.8,50.0,36,29.88,10.0,NW,9.2,-,N/A,,Clear,320,2013-06-16 23:54:00
7:14 PM,78.8,50.0,36,29.88,10.0,NW,6.9,-,N/A,,Clear,310,2013-06-17 00:14:00
7:34 PM,77.0,51.8,41,29.87,10.0,NW,3.5,-,N/A,,Clear,310,2013-06-17 00:34:00
7:54 PM,77.0,51.8,41,29.87,10.0,Calm,Calm,-,N/A,,Clear,0,2013-06-17 00:54:00
8:14 PM,78.8,53.6,42,29.87,10.0,West,3.5,-,N/A,,Clear,280,2013-06-17 01:14:00
8:34 PM,77.0,51.8,41,29.87,10.0,WNW,3.5,-,N/A,,Clear,300,2013-06-17 01:34:00
8:54 PM,73.4,53.6,50,29.87,10.0,West,3.5,-,N/A,,Clear,260,2013-06-17 01:54:00
9:13 PM,73.4,55.4,53,29.88,10.0,WSW,5.8,-,N/A,,Clear,240,2013-06-17 02:13:00
9:34 PM,71.6,53.6,53,29.89,10.0,SW,3.5,-,N/A,,Clear,230,2013-06-17 02:34:00
9:54 PM,69.8,53.6,56,29.89,10.0,SW,4.6,-,N/A,,Clear,230,2013-06-17 02:54:00
10:13 PM,69.8,53.6,56,29.89,10.0,WSW,3.5,-,N/A,,Clear,240,2013-06-17 03:13:00
10:34 PM,69.8,53.6,56,29.90,10.0,WSW,3.5,-,N/A,,Clear,240,2013-06-17 03:34:00
10:54 PM,68.0,53.6,60,29.89,10.0,WSW,5.8,-,N/A,,Clear,240,2013-06-17 03:54:00
11:14 PM,69.8,53.6,56,29.89,10.0,WSW,6.9,-,N/A,,Clear,250,2013-06-17 04:14:00
11:33 PM,69.8,53.6,56,29.89,10.0,WSW,8.1,-,N/A,,Clear,240,2013-06-17 04:33:00
11:54 PM,69.8,53.6,56,29.90,10.0,WSW,8.1,-,N/A,,Clear,250,2013-06-17 04:54:00